When you browse on this site, cookies collect data to enhance your experience and personalize the content and advertising you see.
Visit our Privacy Policy to learn more. By continuing to use the site, you agree to this use of cookies and data.
  • en Belgique
  • Liste des pays
  • À 7 jours
  • Température de l'eau
  • Carte satellitaire
  • Carte météo
  • Widgets météo
  • user-avatar
    Se connecter

    Météo par heure à Roza

    Ce jour, 19 Février, Mardi

    Heure Température Précipitation Vent Pression Humidité
    00:00 +3°C° 0 mm 2 m/s 736 mmHg 91%
    01:00 +2°C° 0 mm 2 m/s 735 mmHg 92%
    02:00 +2°C° 0 mm 2 m/s 735 mmHg 93%
    03:00 +2°C° 0 mm 2 m/s 735 mmHg 92%
    04:00 +1°C° 0 mm 2 m/s 735 mmHg 92%
    05:00 +1°C° 0 mm 2 m/s 735 mmHg 92%
    06:00 0°C° 0 mm 3 m/s 734 mmHg 91%
    07:00 0°C° 0 mm 3 m/s 734 mmHg 90%
    08:00 0°C° 0 mm 3 m/s 734 mmHg 89%
    09:00 +1°C° 0 mm 3 m/s 734 mmHg 83%
    10:00 +3°C° 0 mm 3 m/s 734 mmHg 77%
    11:00 +4°C° 0 mm 4 m/s 734 mmHg 71%
    12:00 +5°C° 0 mm 4 m/s 733 mmHg 67%
    13:00 +7°C° 0 mm 4 m/s 733 mmHg 63%
    14:00 +8°C° 0 mm 4 m/s 733 mmHg 59%
    15:00 +8°C° 0 mm 4 m/s 732 mmHg 61%
    16:00 +7°C° 0 mm 4 m/s 732 mmHg 63%
    17:00 +8°C° 0 mm 3 m/s 732 mmHg 65%
    18:00 +6°C° 0 mm 4 m/s 732 mmHg 70%
    19:00 +5°C° 0 mm 4 m/s 731 mmHg 75%
    20:00 +4°C° 0 mm 4 m/s 731 mmHg 80%
    21:00 +3°C° 0 mm 4 m/s 731 mmHg 81%
    22:00 +2°C° 0 mm 5 m/s 731 mmHg 82%
    23:00 +2°C° 0 mm 5 m/s 731 mmHg 83%

    Demain, 20 Février, Mercredi

    Heure Température Précipitation Vent Pression Humidité
    00:00 +2°C° 0 mm 5 m/s 731 mmHg 84%
    01:00 +1°C° 0 mm 5 m/s 731 mmHg 85%
    02:00 +1°C° 0 mm 5 m/s 732 mmHg 86%
    03:00 +1°C° 0.4 mm 4 m/s 731 mmHg 87%
    04:00 +1°C° 0.4 mm 4 m/s 731 mmHg 89%
    05:00 +1°C° 0.4 mm 4 m/s 731 mmHg 90%
    06:00 +1°C° 0 mm 4 m/s 731 mmHg 91%
    07:00 +1°C° 0 mm 4 m/s 732 mmHg 92%
    08:00 0°C° 0 mm 5 m/s 732 mmHg 93%
    09:00 +1°C° 0.1 mm 5 m/s 732 mmHg 89%
    10:00 +1°C° 0.1 mm 5 m/s 732 mmHg 86%
    11:00 +2°C° 0.1 mm 6 m/s 733 mmHg 82%
    12:00 +2°C° 0.1 mm 6 m/s 733 mmHg 78%
    13:00 +3°C° 0.1 mm 7 m/s 733 mmHg 73%
    14:00 +3°C° 0.1 mm 7 m/s 733 mmHg 68%
    15:00 +3°C° 0.1 mm 7 m/s 733 mmHg 69%
    16:00 +3°C° 0.1 mm 6 m/s 733 mmHg 69%
    17:00 +3°C° 0.1 mm 6 m/s 734 mmHg 69%
    18:00 +2°C° 0 mm 5 m/s 734 mmHg 72%
    19:00 +1°C° 0 mm 5 m/s 734 mmHg 74%
    20:00 +1°C° 0 mm 5 m/s 734 mmHg 77%
    21:00 +1°C° 0 mm 5 m/s 735 mmHg 77%
    22:00 +1°C° 0 mm 5 m/s 735 mmHg 78%
    23:00 +1°C° 0 mm 5 m/s 735 mmHg 78%

    Après-demain, 21 Février, Jeudi

    Heure Température Précipitation Vent Pression Humidité
    00:00 +1°C° 0 mm 5 m/s 735 mmHg 78%
    01:00 +1°C° 0 mm 5 m/s 735 mmHg 78%
    02:00 +1°C° 0 mm 4 m/s 735 mmHg 78%
    03:00 +1°C° 0 mm 4 m/s 735 mmHg 80%
    04:00 +1°C° 0 mm 4 m/s 735 mmHg 81%
    05:00 +1°C° 0 mm 4 m/s 735 mmHg 83%
    06:00 +1°C° 0 mm 5 m/s 735 mmHg 86%
    07:00 +1°C° 0 mm 5 m/s 735 mmHg 89%
    08:00 +1°C° 0 mm 5 m/s 735 mmHg 92%
    09:00 +2°C° 0.1 mm 5 m/s 735 mmHg 87%
    10:00 +2°C° 0.1 mm 6 m/s 735 mmHg 81%
    11:00 +3°C° 0.1 mm 6 m/s 735 mmHg 76%
    12:00 +3°C° 0.3 mm 6 m/s 735 mmHg 77%
    13:00 +3°C° 0.3 mm 6 m/s 735 mmHg 78%
    14:00 +3°C° 0.3 mm 6 m/s 734 mmHg 79%
    15:00 +3°C° 0.2 mm 6 m/s 734 mmHg 81%
    16:00 +3°C° 0.2 mm 6 m/s 734 mmHg 83%
    17:00 +3°C° 0.2 mm 5 m/s 733 mmHg 86%
    18:00 +3°C° 1.1 mm 5 m/s 733 mmHg 88%
    19:00 +2°C° 1.1 mm 5 m/s 733 mmHg 90%
    20:00 +2°C° 1.1 mm 5 m/s 733 mmHg 91%
    21:00 +2°C° 0.9 mm 5 m/s 733 mmHg 92%
    22:00 +2°C° 0.9 mm 5 m/s 734 mmHg 93%
    23:00 +3°C° 0.9 mm 4 m/s 734 mmHg 94%

    22 Février, Vendredi

    Heure Température Précipitation Vent Pression Humidité
    00:00 +3°C° 0.5 mm 4 m/s 734 mmHg 94%
    01:00 +3°C° 0.5 mm 4 m/s 734 mmHg 95%
    02:00 +3°C° 0.5 mm 4 m/s 735 mmHg 95%
    03:00 +1°C° 0.5 mm 5 m/s 735 mmHg 92%
    04:00 -1°C° 0.5 mm 5 m/s 736 mmHg 88%
    05:00 -4°C° 0.5 mm 6 m/s 736 mmHg 85%
    06:00 -4°C° 0 mm 6 m/s 737 mmHg 81%
    07:00 -5°C° 0 mm 6 m/s 738 mmHg 77%
    08:00 -5°C° 0 mm 6 m/s 739 mmHg 73%
    09:00 -5°C° 0 mm 6 m/s 741 mmHg 69%
    10:00 -5°C° 0 mm 6 m/s 742 mmHg 65%
    11:00 -5°C° 0 mm 6 m/s 743 mmHg 61%
    12:00 -5°C° 0 mm 6 m/s 743 mmHg 59%
    13:00 -4°C° 0 mm 6 m/s 744 mmHg 57%
    14:00 -4°C° 0 mm 6 m/s 745 mmHg 55%
    15:00 -5°C° 0 mm 6 m/s 745 mmHg 54%
    16:00 -5°C° 0 mm 6 m/s 746 mmHg 53%
    17:00 -6°C° 0 mm 6 m/s 746 mmHg 51%
    18:00 -6°C° 0 mm 5 m/s 747 mmHg 52%
    19:00 -5°C° 0 mm 4 m/s 747 mmHg 52%
    20:00 -7°C° 0 mm 4 m/s 748 mmHg 52%
    21:00 -7°C° 0 mm 4 m/s 749 mmHg 51%
    22:00 -7°C° 0 mm 4 m/s 749 mmHg 50%
    23:00 -6°C° 0 mm 3 m/s 749 mmHg 48%

    23 Février, Samedi

    Heure Température Précipitation Vent Pression Humidité
    00:00 -6°C° 0 mm 3 m/s 750 mmHg 47%
    01:00 -6°C° 0 mm 3 m/s 750 mmHg 46%
    02:00 -6°C° 0 mm 3 m/s 750 mmHg 45%
    03:00 -6°C° 0 mm 3 m/s 750 mmHg 46%
    04:00 -5°C° 0 mm 2 m/s 750 mmHg 46%
    05:00 -5°C° 0 mm 2 m/s 749 mmHg 47%
    06:00 -5°C° 0 mm 2 m/s 749 mmHg 46%
    07:00 -5°C° 0 mm 2 m/s 750 mmHg 45%
    08:00 -5°C° 0 mm 2 m/s 750 mmHg 45%
    09:00 -4°C° 0 mm 2 m/s 749 mmHg 40%
    10:00 -3°C° 0 mm 2 m/s 749 mmHg 35%
    11:00 -2°C° 0 mm 2 m/s 749 mmHg 30%
    12:00 -2°C° 0 mm 3 m/s 748 mmHg 31%
    13:00 -2°C° 0 mm 3 m/s 748 mmHg 33%
    14:00 -2°C° 0 mm 3 m/s 748 mmHg 34%
    15:00 -2°C° 0 mm 3 m/s 747 mmHg 40%
    16:00 -4°C° 0 mm 3 m/s 746 mmHg 45%
    17:00 -4°C° 0 mm 4 m/s 746 mmHg 51%
    18:00 -4°C° 0 mm 3 m/s 745 mmHg 51%
    19:00 -4°C° 0 mm 3 m/s 745 mmHg 50%
    20:00 -4°C° 0 mm 3 m/s 745 mmHg 50%
    21:00 -2°C° 0 mm 2 m/s 745 mmHg 50%
    22:00 -2°C° 0 mm 2 m/s 745 mmHg 50%
    23:00 -2°C° 0 mm 2 m/s 745 mmHg 49%

    24 Février, Dimanche

    Heure Température Précipitation Vent Pression Humidité
    00:00 -3°C° 0 mm 2 m/s 744 mmHg 54%
    01:00 -3°C° 0 mm 2 m/s 744 mmHg 58%
    02:00 -3°C° 0 mm 2 m/s 744 mmHg 62%
    03:00 -3°C° 0 mm 2 m/s 744 mmHg 66%
    04:00 -1°C° 0 mm 1 m/s 744 mmHg 70%
    05:00 -2°C° 0 mm 1 m/s 744 mmHg 74%
    06:00 -1°C° 0 mm 1 m/s 744 mmHg 77%
    07:00 -3°C° 0 mm 2 m/s 744 mmHg 79%
    08:00 -3°C° 0 mm 2 m/s 744 mmHg 82%
    09:00 -2°C° 0 mm 2 m/s 744 mmHg 81%
    10:00 +1°C° 0 mm 2 m/s 744 mmHg 80%
    11:00 +1°C° 0 mm 3 m/s 744 mmHg 79%
    12:00 +1°C° 0 mm 3 m/s 744 mmHg 82%
    13:00 +1°C° 0 mm 3 m/s 743 mmHg 86%
    14:00 +1°C° 0 mm 3 m/s 743 mmHg 89%
    15:00 +1°C° 0 mm 3 m/s 742 mmHg 90%
    16:00 +1°C° 0 mm 3 m/s 742 mmHg 92%
    17:00 +1°C° 0 mm 3 m/s 741 mmHg 93%
    18:00 +1°C° 0 mm 3 m/s 741 mmHg 94%
    19:00 0°C° 0 mm 3 m/s 740 mmHg 94%
    20:00 0°C° 0 mm 3 m/s 740 mmHg 95%
    21:00 0°C° 0 mm 3 m/s 739 mmHg 95%
    22:00 -2°C° 0 mm 4 m/s 739 mmHg 95%
    23:00 -2°C° 0 mm 4 m/s 738 mmHg 95%
    Voir plus